#timestamp,LO_Frequency,Hit,StdDev 
1710385215.4,286047006.2,N
1710385235.3,286047007.0,N
1710385255.1,286047005.0,N
1710385275.8,286047006.3,N
1710385295.7,286047009.8,N
1710385315.5,286047010.7,N
1710385335.4,286047009.5,N
1710385355.2,286047005.2,N
1710385375.0,286047007.0,N
1710385375.9,286047007.0,N
1710385395.8,286047006.8,N
1710385415.6,286047006.1,N
1710385435.4,286047005.2,N
1710385455.3,286047004.3,N
1710385475.1,286047004.2,N
1710385495.8,286047005.0,N
1710385515.7,286047004.9,N
1710385535.5,286047006.9,N
1710385555.4,286047007.4,N
1710385575.2,286047007.6,N
1710385595.0,286047008.4,N
1710385595.9,286047008.4,N
1710385615.8,286047008.0,N
1710385635.6,286047007.7,N
1710385655.5,286047008.8,Y
1710385675.3,286047000.3,P
1710385695.1,286047005.6,N
1710385715.9,286047005.1,N
1710385735.7,286047004.3,N
1710385755.5,286047002.0,N
1710385775.4,286047000.5,N
1710385795.2,286047002.3,N
1710385815.0,286047004.1,N
1710385816.0,286047004.1,N
1710385835.8,286047003.3,N
1710385855.6,286047009.0,Y
1710385875.5,286047004.1,P
1710385895.3,286047003.0,P
1710385915.1,286047004.6,P
1710385935.9,286047006.9,Y
1710385955.7,286047004.0,P
1710385975.6,286047005.7,P
1710385995.4,286047004.5,P
1710386015.2,286047006.0,Y
1710386035.1,286047002.4,P
1710386036.0,286047002.4,N
1710386055.8,286047003.3,P
1710386075.7,286047003.9,Y
1710386095.5,286046997.3,P
1710386115.3,286046997.5,N
1710386135.2,286046997.5,N
1710386155.0,286046994.2,N
1710386155.9,286046994.2,N
1710386175.7,286046995.8,N
1710386195.6,286046993.6,N
1710386215.4,286046993.6,N
1710386235.3,286046997.6,N
1710386255.1,286046992.9,N
1710386275.8,286046992.6,N
1710386295.7,286046990.2,Y
1710386315.5,286046995.4,P
1710386335.4,286046995.0,P
1710386355.2,286046997.0,P
1710386375.0,286046997.3,Y
1710386375.9,286046997.3,P
1710386395.8,286047001.9,N
1710386415.6,286047005.8,N
1710386435.4,286047006.9,N
1710386455.3,286047004.8,N
1710386475.1,286047003.6,N
1710386495.9,286047005.0,N
1710386515.7,286047008.8,N
1710386535.5,286047006.2,N
1710386555.4,286047006.9,N
1710386575.2,286047010.5,N
1710386595.0,286047008.9,N
1710386595.9,286047008.9,N
1710386615.8,286047008.0,N
1710386635.6,286047005.7,N
1710386655.5,286047003.4,N
1710386675.3,286047003.6,N
1710386695.1,286047004.5,N
1710386715.9,286047006.0,N
1710386735.7,286047005.5,N
1710386755.5,286047003.0,N
1710386775.4,286047005.7,N
1710386795.2,286047007.4,N
1710386815.1,286047007.3,N
1710386816.0,286047007.3,N
1710386835.8,286047007.2,N
1710386855.6,286047013.2,Y
1710386875.5,286047004.6,P
1710386895.3,286047005.2,P
1710386915.1,286047008.6,P
1710386935.9,286047010.6,Y
1710386955.7,286047003.1,P
1710386975.6,286047006.3,P
1710386995.4,286047007.7,P
1710387015.2,286047012.4,Y
1710387035.1,286047003.8,P
1710387036.0,286047003.8,P
1710387055.8,286047007.2,P
1710387075.7,286047006.3,Y
1710387095.5,286047002.6,P
1710387115.3,286047002.1,N
1710387135.2,286046998.9,N
1710387155.0,286046998.3,N
1710387155.9,286046998.3,N
1710387175.8,286047000.8,N
1710387195.6,286046998.5,N
1710387215.4,286046999.6,N
1710387235.3,286046999.5,N
1710387255.1,286046999.0,N
1710387275.8,286047002.3,N
1710387295.7,286047003.4,N
1710387315.5,286047003.4,N
1710387335.4,286047001.3,N
1710387355.2,286047004.5,N
1710387375.1,286047005.7,N
1710387376.0,286047005.7,N
1710387395.8,286047008.8,Y
1710387415.7,286047006.2,P
1710387435.5,286047007.6,P
1710387455.3,286047008.5,P
1710387475.2,286047005.1,N
1710387495.0,286047002.0,N
1710387495.9,286047002.0,N
1710387515.7,286047000.1,N
1710387535.6,286046998.6,N
1710387555.4,286047000.5,N
1710387575.3,286046997.4,N
1710387595.1,286046995.9,N
1710387596.0,286046995.9,N
1710387615.8,286046994.7,N
1710387635.7,286046994.7,N
1710387655.5,286046994.0,N
1710387675.3,286046994.5,N
1710387695.2,286046992.8,N
1710387715.0,286046992.2,N
1710387715.9,286046992.2,N
1710387735.8,286046996.3,N
1710387755.6,286047000.8,N
1710387775.4,286047002.5,N
1710387795.3,286047004.9,N
1710387815.1,286047008.9,N
1710387835.8,286047006.5,N
1710387855.7,286047010.1,N
1710387875.5,286047014.0,N
1710387895.4,286047011.1,N
1710387915.2,286047011.5,N
1710387935.0,286047014.0,N
1710387935.9,286047014.0,N
1710387955.8,286047010.0,N
1710387975.6,286047006.6,N
1710387995.4,286047003.8,N
1710388015.3,286046998.6,N
1710388035.1,286046995.8,N
1710388055.9,286046992.6,N
1710388075.7,286046987.1,N
1710388095.5,286046981.8,N
1710388115.4,286046977.6,N
1710388135.2,286046975.8,N
1710388155.0,286046974.4,N
1710388155.9,286046974.4,N
1710388175.8,286046977.9,N
1710388195.6,286046979.4,N
1710388215.5,286046981.8,N
1710388235.3,286046978.8,N
1710388255.1,286046980.4,N
1710388275.9,286046977.3,N
1710388295.7,286046974.8,N
1710388315.5,286046970.9,N
1710388335.4,286046966.2,N
1710388355.2,286046967.3,N
1710388375.1,286046969.0,N
1710388376.0,286046969.0,N
1710388395.8,286046972.0,N
1710388415.6,286046973.8,N
1710388435.5,286046974.8,N
1710388455.3,286046974.1,N
1710388475.2,286046975.4,N
1710388495.9,286046972.2,N
1710388515.7,286046968.2,N
1710388535.6,286046969.4,N
1710388555.4,286046971.3,Y
1710388575.3,286046992.9,P
1710388595.1,286046990.3,N
1710388596.0,286046990.3,N
1710388615.8,286046994.1,N
1710388635.7,286046994.6,N
1710388655.5,286046993.4,N
1710388675.3,286046995.8,N
1710388695.2,286046996.1,N
1710388715.0,286046995.7,N
1710388715.9,286046995.7,N
1710388735.8,286046996.9,N
1710388755.6,286046998.8,N
1710388775.4,286046996.9,N
1710388795.3,286046998.9,N
